Location: Newark
(33.1119°N, 7.4058°W)
Time: 09:39:27
(UTC+00:00)

Hubble Space Telescope - Visible Passes

Search period start: 14 November 2019 00:00
Search period end: 24 November 2019 00:00
Orbit: 536 x 540 km, 28.5° (Epoch: 13 November)

Date Brightness Start Highest point End Pass type
(mag) Time Alt. Az. Time Alt. Az. Time Alt. Az.
16 Nov 3.2 18:36:29 10° SSE 18:37:03 10° SSE 18:37:37 10° SSE visible
17 Nov 3.1 18:24:23 10° S 18:26:21 13° SSE 18:28:18 10° SE visible
17 Nov 3.6 20:03:20 10° SW 20:03:55 13° SW 20:03:55 13° SW visible
18 Nov 2.9 18:13:05 10° SSW 18:15:39 16° SSE 18:18:15 10° ESE visible
18 Nov 3.2 19:52:36 10° WSW 19:53:59 19° SW 19:53:59 19° SW visible
19 Nov 2.7 18:01:59 10° SSW 18:04:59 19° SSE 18:07:59 10° ESE visible
19 Nov 2.7 19:41:54 10° WSW 19:44:01 26° SW 19:44:01 26° SW visible
20 Nov 2.5 17:51:01 10° SW 17:54:18 23° SSE 17:57:36 10° ESE visible
20 Nov 2.1 19:31:14 10° WSW 19:34:03 34° SSW 19:34:03 34° SSW visible
21 Nov 1.7 19:20:35 10° WSW 19:24:04 41° SSW 19:24:04 41° SSW visible
22 Nov 1.4 19:09:57 10° WSW 19:13:53 44° S 19:14:06 43° S visible
23 Nov 1.5 18:59:20 10° WSW 19:03:15 43° S 19:04:09 37° SSE visible
